Agadir/Al Massir, Morocco

10:13 AM WET on February 25, 2017 (GMT +0000)
Al-Massira

Weather History for GMAD - December, 2013

Change the Weather History Date:

Tuesday, December 31, 2013

  Actual Average Record
Temperature  
Mean Temperature 56 °F -  
Max Temperature 71 °F - - ()
Min Temperature 41 °F - - ()
Degree Days  
Heating Degree Days 9    
Growing Degree Days 6 (Base 50)    
Moisture  
Dew Point 41 °F    
Average Humidity 62    
Maximum Humidity 88    
Minimum Humidity 21    
Precipitation  
Precipitation 0.00 in - - ()
Sea Level Pressure  
Sea Level Pressure 30.25 in    
Wind  
Wind Speed 4 mph ()    
Max Wind Speed 15 mph    
Max Gust Speed -    
Visibility 6.0 miles    
Events      
T = Trace of Precipitation, MM = Missing Value Source: Averaged Metar Reports

Daily Weather History Graph

Daily Weather History Graph

Search for Another Location

Airport or City:

Trip Planner

Search our weather history database for the weather conditions in past years. The results will help you decide how hot, cold, wet, or windy it might be!

Date:

Astronomy

Dec. 31, 2013 Rise Set
Actual Time 7:34 AM WET 5:47 PM WET
Civil Twilight 7:07 AM WET 6:13 PM WET
Nautical Twilight 6:37 AM WET 6:43 PM WET
Astronomical Twilight 6:08 AM WET 7:13 PM WET
Moon 6:16 AM WET (12/31) 5:05 PM WET (12/31)
Length of Visible Light 11h 06m
Length of Day
10h 13m
Waning Crescent, 1% of the Moon is Illuminated
Dec 31
Waning Crescent
Jan 1
New
Jan 8
First Quarter
Jan 16
Full
Jan 24
Last Quarter

Hourly Weather History & Observations

Time (WET) Temp. Windchill Dew Point Humidity Pressure Visibility Wind Dir Wind Speed Gust Speed Precip Events Conditions
12:00 AM 49 °F - 39 °F 58% 30.28 in 6 mi Calm Calm - -  
12:00 AM 48.2 °F - 39.2 °F 71% 30.27 in - Calm Calm - N/A   Clear
1:00 AM 46.4 °F - 37.4 °F 71% 30.27 in - Calm Calm - N/A   Clear
2:00 AM 48.2 °F - 39.2 °F 71% 30.24 in - ESE 5.8 mph - N/A   Clear
3:00 AM 44 °F - 36 °F 66% 30.27 in 6 mi NE 3.5 mph - -  
3:00 AM 44.6 °F 43.1 °F 35.6 °F 71% 30.24 in - NE 3.5 mph - N/A   Clear
4:00 AM 44.6 °F 40.7 °F 37.4 °F 76% 30.24 in - ENE 6.9 mph - N/A   Clear
5:00 AM 44.6 °F 40.7 °F 35.6 °F 71% 30.24 in - ENE 6.9 mph - N/A   Clear
7:00 AM 41.0 °F 37.1 °F 33.8 °F 76% 30.24 in - ENE 5.8 mph - N/A   Clear
8:00 AM 42.8 °F 37.5 °F 35.6 °F 76% 30.27 in - East 9.2 mph - N/A   Clear
9:00 AM 50 °F - 37 °F 49% 30.30 in 6 mi ESE 6.9 mph - -  
9:00 AM 50.0 °F - 37.4 °F 62% 30.27 in - ESE 8.1 mph - N/A   Clear
10:00 AM 57.2 °F - 37.4 °F 48% 30.30 in - East 4.6 mph - N/A   Clear
11:00 AM 66.2 °F - 35.6 °F 32% 30.30 in - Calm Calm - N/A   Clear
12:00 PM 67 °F - 37 °F 21% 30.28 in 6 mi Calm Calm - -   Clear
12:00 PM 68.0 °F - 37.4 °F 33% 30.27 in - Calm Calm - N/A   Clear
1:00 PM 69.8 °F - 35.6 °F 28% 30.24 in - WSW 8.1 mph - N/A   Clear
2:00 PM 68.0 °F - 37.4 °F 33% 30.21 in - West 13.8 mph - N/A   Clear
3:00 PM 66 °F - 48 °F 41% 30.23 in 6 mi West 15.0 mph - -   Clear
3:00 PM 64.4 °F - 46.4 °F 52% 30.21 in 6.2 mi West 15.0 mph - N/A   Unknown
4:00 PM 64.4 °F - 51.8 °F 64% 30.21 in - West 15.0 mph - N/A   Clear
5:00 PM 62.6 °F - 51.8 °F 68% 30.21 in - West 13.8 mph - N/A   Clear
6:00 PM 60 °F - 52 °F 67% 30.24 in 6 mi West 10.4 mph - -   Clear
6:00 PM 59.0 °F - 51.8 °F 77% 30.21 in - West 10.4 mph - N/A   Clear
8:00 PM 55.4 °F - 50.0 °F 82% 30.24 in - South 4.6 mph - N/A   Clear
9:00 PM 53.6 °F - 50.0 °F 88% 30.24 in - South 4.6 mph - N/A   Clear
10:00 PM 53.6 °F - 50.0 °F 88% 30.27 in - Calm Calm - N/A   Clear
11:00 PM 46.4 °F - 42.8 °F 87% 30.27 in - Calm Calm - N/A   Clear